EVA712 RCTP-ZSPD

Flight info

Callsign EVA712
Flight time N/A
Altitude 37000
Route PIANO L3 VIOLA R596 SULEM/K0891S1130 R596 DST B221 SHZ W58 XSY
Aircraft B77W/H-SDE1E2E3FGHIJ1J3J4J5LM1P2RWXYZ/LB1D1

Departure

Time 2026-05-05 10:02
Airport Taiwan Taoyuan International Airport (RCTP)

Arrival

Time N/A
Airport Shanghai Pudong International Airport (ZSPD)
Time Latitude Longitude Altitude Speed Heading
2026-05-05 09:41 25.07551 121.23379 106 ft 0 kts 319°
2026-05-05 09:51 25.07539 121.23391 105 ft 2 kts 317°
2026-05-05 09:52 25.07527 121.23404 105 ft 2 kts 314°
2026-05-05 09:52 25.07516 121.23417 103 ft 2 kts 310°
2026-05-05 09:52 25.07506 121.23432 104 ft 2 kts 304°
2026-05-05 09:52 25.07497 121.23447 107 ft 2 kts 296°
2026-05-05 09:53 25.07491 121.23464 103 ft 2 kts 282°
2026-05-05 09:53 25.07490 121.23482 105 ft 2 kts 259°
2026-05-05 09:53 25.07495 121.23499 104 ft 2 kts 233°
2026-05-05 09:53 25.07499 121.23504 103 ft 0 kts 229°
2026-05-05 09:55 25.07498 121.23503 103 ft 1 kts 229°
2026-05-05 09:55 25.07488 121.23490 104 ft 4 kts 229°
2026-05-05 09:55 25.07462 121.23457 106 ft 8 kts 229°
2026-05-05 09:55 25.07420 121.23403 107 ft 10 kts 229°
2026-05-05 09:56 25.07377 121.23347 108 ft 10 kts 229°
2026-05-05 09:56 25.07333 121.23291 108 ft 10 kts 229°
2026-05-05 09:56 25.07289 121.23234 108 ft 10 kts 229°
2026-05-05 09:56 25.07236 121.23192 108 ft 10 kts 191°
2026-05-05 09:57 25.07173 121.23215 106 ft 10 kts 147°
2026-05-05 09:57 25.07120 121.23261 107 ft 10 kts 144°
2026-05-05 09:57 25.07056 121.23255 107 ft 10 kts 210°
2026-05-05 09:57 25.06998 121.23193 107 ft 14 kts 229°
2026-05-05 09:58 25.06919 121.23093 107 ft 20 kts 229°
2026-05-05 09:58 25.06814 121.22959 106 ft 25 kts 229°
2026-05-05 09:58 25.06700 121.22815 108 ft 25 kts 229°
2026-05-05 09:58 25.06586 121.22670 105 ft 25 kts 228°
2026-05-05 09:59 25.06472 121.22526 105 ft 25 kts 229°
2026-05-05 09:59 25.06360 121.22384 106 ft 20 kts 229°
2026-05-05 09:59 25.06313 121.22324 107 ft 9 kts 229°
2026-05-05 09:59 25.06272 121.22272 107 ft 9 kts 229°
2026-05-05 10:00 25.06216 121.22253 105 ft 9 kts 166°
2026-05-05 10:00 25.06164 121.22291 103 ft 9 kts 140°
2026-05-05 10:00 25.06117 121.22337 102 ft 9 kts 128°
2026-05-05 10:00 25.06121 121.22400 103 ft 6 kts 56°
2026-05-05 10:01 25.06133 121.22417 103 ft 0 kts 51°
2026-05-05 10:01 25.06167 121.22461 102 ft 23 kts 49°
2026-05-05 10:01 25.06405 121.22764 100 ft 91 kts 49°
2026-05-05 10:01 25.06987 121.23503 101 ft 161 kts 49°
2026-05-05 10:02 25.07519 121.24178 245 ft 181 kts 50°
2026-05-05 10:02 25.08608 121.25559 1351 ft 177 kts 52°
2026-05-05 10:02 25.09135 121.26254 1864 ft 180 kts 53°
2026-05-05 10:02 25.09988 121.27385 2204 ft 205 kts 52°
2026-05-05 10:03 25.10958 121.28668 2490 ft 233 kts 52°
2026-05-05 10:03 25.12594 121.30460 3150 ft 262 kts 38°
2026-05-05 10:03 25.13612 121.31255 3715 ft 271 kts 34°
2026-05-05 10:03 25.15221 121.32432 4576 ft 279 kts 32°
2026-05-05 10:04 25.16860 121.33613 5523 ft 284 kts 32°
2026-05-05 10:04 25.18517 121.34816 6566 ft 286 kts 31°
2026-05-05 10:04 25.20198 121.36045 7324 ft 294 kts 31°
2026-05-05 10:04 25.21930 121.37322 8066 ft 305 kts 31°
2026-05-05 10:05 25.23709 121.38643 8928 ft 309 kts 31°
2026-05-05 10:05 25.25500 121.39981 9861 ft 313 kts 31°
2026-05-05 10:05 25.27311 121.41337 10522 ft 326 kts 31°
2026-05-05 10:05 25.29293 121.42819 10770 ft 354 kts 31°
2026-05-05 10:06 25.31380 121.44381 10979 ft 381 kts 31°
2026-05-05 10:06 25.33649 121.46088 11530 ft 396 kts 31°
2026-05-05 10:06 25.35921 121.47804 12327 ft 405 kts 31°
2026-05-05 10:06 25.38257 121.49571 13284 ft 410 kts 31°
2026-05-05 10:07 25.40631 121.51368 14185 ft 417 kts 31°
2026-05-05 10:07 25.43050 121.53197 14986 ft 424 kts 31°
2026-05-05 10:07 25.45509 121.55057 15775 ft 432 kts 31°
2026-05-05 10:07 25.48008 121.56948 16554 ft 440 kts 31°
2026-05-05 10:08 25.50562 121.58881 17339 ft 448 kts 31°
2026-05-05 10:08 25.53156 121.60845 18114 ft 455 kts 31°
2026-05-05 10:08 25.55786 121.62838 18807 ft 462 kts 31°
2026-05-05 10:08 25.58449 121.64857 19500 ft 467 kts 31°
2026-05-05 10:09 25.61142 121.66901 20207 ft 472 kts 31°
2026-05-05 10:09 25.63862 121.68966 20933 ft 476 kts 31°
2026-05-05 10:09 25.66614 121.71056 21615 ft 482 kts 31°
2026-05-05 10:09 25.69401 121.73174 22270 ft 489 kts 31°
2026-05-05 10:10 25.72224 121.75320 22921 ft 495 kts 31°
2026-05-05 10:10 25.75082 121.77495 23519 ft 502 kts 31°
2026-05-05 10:10 25.77975 121.79697 24038 ft 507 kts 31°
2026-05-05 10:10 25.80894 121.81921 24580 ft 511 kts 32°
2026-05-05 10:11 25.83809 121.84212 25137 ft 515 kts 33°
2026-05-05 10:11 25.86713 121.86565 25668 ft 519 kts 33°
2026-05-05 10:11 25.89636 121.88959 26223 ft 523 kts 33°
2026-05-05 10:11 25.92579 121.91367 26745 ft 528 kts 33°
2026-05-05 10:12 25.95551 121.93786 27257 ft 532 kts 33°
2026-05-05 10:12 25.98548 121.96215 27750 ft 536 kts 33°
2026-05-05 10:12 26.01573 121.98665 28232 ft 540 kts 33°
2026-05-05 10:12 26.04631 122.01125 28722 ft 544 kts 33°
2026-05-05 10:13 26.07732 122.03567 29191 ft 548 kts 32°
2026-05-05 10:13 26.10859 122.06000 29656 ft 551 kts 32°
2026-05-05 10:13 26.14018 122.08450 30080 ft 555 kts 32°
2026-05-05 10:13 26.17154 122.10884 30424 ft 558 kts 32°
2026-05-05 10:14 26.20382 122.13399 30811 ft 560 kts 32°
2026-05-05 10:14 26.23577 122.15898 31297 ft 560 kts 32°
2026-05-05 10:14 26.26712 122.18357 31820 ft 558 kts 32°
2026-05-05 10:14 26.29882 122.20847 32308 ft 558 kts 32°
2026-05-05 10:15 26.33053 122.23340 32775 ft 558 kts 32°
2026-05-05 10:15 26.36225 122.25835 33239 ft 557 kts 32°
2026-05-05 10:15 26.39381 122.28319 33747 ft 556 kts 31°
2026-05-05 10:15 26.42541 122.30808 34257 ft 553 kts 31°
2026-05-05 10:16 26.45682 122.33282 34686 ft 552 kts 31°
2026-05-05 10:16 26.48819 122.35755 35045 ft 553 kts 31°
2026-05-05 10:16 26.51959 122.38230 35389 ft 553 kts 31°
2026-05-05 10:16 26.55104 122.40710 35719 ft 554 kts 31°
2026-05-05 10:17 26.58254 122.43197 36058 ft 554 kts 31°
2026-05-05 10:17 26.61407 122.45689 36412 ft 554 kts 30°
2026-05-05 10:17 26.64551 122.48176 36772 ft 554 kts 30°
2026-05-05 10:17 26.67700 122.50668 37010 ft 556 kts 30°
2026-05-05 10:18 26.74071 122.55711 37065 ft 566 kts 30°
2026-05-05 10:18 26.80537 122.60840 37074 ft 573 kts 30°
2026-05-05 10:19 26.87053 122.66021 37074 ft 576 kts 30°
2026-05-05 10:19 26.93596 122.71232 37062 ft 577 kts 30°
2026-05-05 10:20 26.96867 122.73831 37062 ft 574 kts 29°